Date,TemperatureHighF,TemperatureAvgF,TemperatureLowF,DewpointHighF,DewpointAvgF,DewpointLowF,HumidityHigh,HumidityAvg,HumidityLow,PressureMaxIn,PressureMinIn,WindSpeedMaxMPH,WindSpeedAvgMPH,GustSpeedMaxMPH,PrecipitationSumIn
2013-10-1,86,66,51,66,58,51,99,79,45,30.07,29.97,6,1,12,0.00
2013-10-2,89,72,58,68,62,58,99,76,40,30.08,30.00,6,2,14,0.00
2013-10-3,88,71,60,70,64,60,99,80,44,30.12,29.92,5,1,11,0.00
2013-10-4,91,73,61,72,65,60,99,79,42,29.92,29.84,4,1,10,0.00
2013-10-5,92,76,64,73,66,63,99,77,42,30.08,29.88,6,1,14,0.00
2013-10-6,91,75,64,74,67,64,99,78,44,30.07,29.98,8,3,21,0.00
2013-10-7,86,70,60,75,67,59,99,92,59,30.06,29.83,12,4,32,0.72
2013-10-8,67,60,53,60,51,48,96,75,56,30.28,30.05,10,4,21,0.01
2013-10-9,64,59,57,58,56,51,99,88,75,30.28,30.14,13,6,23,0.91
2013-10-10,66,62,58,66,62,58,99,98,97,30.15,29.92,12,8,26,1.05
2013-10-11,68,66,64,68,66,63,99,99,97,29.97,29.87,10,6,24,1.28
2013-10-12,66,64,63,65,63,62,99,97,95,30.13,29.95,10,7,21,0.39
2013-10-13,65,62,60,64,58,57,99,87,81,30.32,30.13,13,6,22,0.25
2013-10-14,71,61,52,61,57,51,98,87,64,30.33,30.24,9,4,14,0.00
2013-10-15,72,60,50,60,55,50,99,86,63,30.25,30.09,8,3,15,0.01
2013-10-16,77,66,58,66,62,57,99,86,65,30.10,29.95,4,2,8,0.00
2013-10-17,79,70,60,69,64,59,99,83,61,29.96,29.78,8,3,13,0.00
2013-10-18,71,61,49,65,49,45,97,68,42,30.04,29.79,6,3,17,0.00
2013-10-19,66,56,46,61,53,45,99,92,71,30.03,29.82,4,1,11,0.02
2013-10-20,67,55,43,59,43,36,98,68,34,30.13,29.86,7,2,17,0.00
2013-10-21,72,53,38,58,44,38,99,75,31,30.19,30.02,6,1,15,0.00
2013-10-22,70,57,48,57,51,47,99,81,54,30.02,29.82,5,1,11,0.00
2013-10-23,56,50,41,52,44,38,99,82,60,30.07,29.66,6,3,11,0.31
2013-10-24,59,45,34,41,35,29,96,71,35,30.14,29.88,9,3,19,0.00
2013-10-25,59,42,32,41,34,30,99,76,40,30.33,30.13,10,2,18,0.00
2013-10-26,61,44,30,46,34,29,99,71,35,30.32,29.97,14,3,28,0.00
2013-10-27,64,52,40,41,38,33,94,62,33,30.18,29.97,8,3,19,0.00
2013-10-28,70,51,36,51,43,34,99,77,40,30.29,30.16,5,1,11,0.00
2013-10-29,71,53,42,55,47,42,99,84,47,30.37,30.28,6,2,11,0.00
2013-10-30,83,60,48,67,56,47,99,88,52,30.36,30.19,8,1,13,0.00
2013-10-31,74,63,52,66,58,51,99,86,66,30.22,29.88,9,3,20,0.01